{"data":{"norad_id":62118,"intl_designator":"2024-222E","name":"STARLINK-32549","alt_names":[],"object_type":"PAYLOAD","status":"ACTIVE","operator":null,"country":"US","launch_date":"2024-11-27","launch_site_code":"AFETR","launch_vehicle":null,"mission":null,"orbit_class":"UNKNOWN","rcs_meters":null,"size_class":null,"mass_kg":null,"dimensions":null,"purposes":["comms"],"wikipedia_slug":null,"has_3d_model":false,"image_url":null,"decayed_at":null,"tle_current":{"epoch":"2026-09-21T00:02:40.711776Z","epoch_age_seconds":138975,"freshness":"FRESH","line1":"1 62118U 24222E   26264.00186009  .00009292  00000+0  34661-3 0  9998","line2":"2 62118  42.9966 112.8020 0000861 276.8056  83.2698 15.27592998102689","mean_motion":15.27592998,"eccentricity":8.61e-5,"inclination_deg":42.9966,"raan_deg":112.802,"arg_perigee_deg":276.8056,"mean_anomaly_deg":83.2698,"bstar":0.00034661,"rev_number":10268,"period_min":94.26594661571,"perigee_km":482.4194308558,"apogee_km":483.60092039944,"semimajor_km":6861.1471756276,"source":"CELESTRAK","updated_at":"2026-09-22T09:00:49.524450Z"}}}